When you browse on this site, cookies collect data to enhance your experience and personalize the content and advertising you see.
Visit our Privacy Policy to learn more. By continuing to use the site, you agree to this use of cookies and data.
  • In Romania
  • List of Countries
  • For 7 days
  • Water Temperature
  • Weather Map
  • Weather Widgets
  • user-avatar
    Login

    Hourly Weather Brisbane

    Today, 22 February, Saturday

    Time Temperature Precipitation Wind Pressure Humidity
    00:00 +25°C° 0 mm 3 mps 761 mmHg 74%
    01:00 +25°C° 0 mm 2 mps 761 mmHg 75%
    02:00 +25°C° 0 mm 3 mps 761 mmHg 75%
    03:00 +24°C° 0 mm 3 mps 761 mmHg 76%
    04:00 +24°C° 0 mm 2 mps 761 mmHg 77%
    05:00 +25°C° 0.1 mm 2 mps 761 mmHg 76%
    06:00 +25°C° 0.1 mm 2 mps 762 mmHg 74%
    07:00 +26°C° 0.1 mm 2 mps 762 mmHg 73%
    08:00 +27°C° 0.3 mm 3 mps 762 mmHg 69%
    09:00 +28°C° 0.3 mm 4 mps 763 mmHg 65%
    10:00 +29°C° 0 mm 4 mps 763 mmHg 61%
    11:00 +29°C° 0.5 mm 5 mps 763 mmHg 61%
    12:00 +29°C° 0.5 mm 5 mps 762 mmHg 61%
    13:00 +29°C° 0.5 mm 6 mps 762 mmHg 60%
    14:00 +29°C° 0.1 mm 6 mps 762 mmHg 59%
    15:00 +29°C° 0.1 mm 6 mps 761 mmHg 57%
    16:00 +29°C° 0.1 mm 6 mps 761 mmHg 56%
    17:00 +28°C° 0 mm 6 mps 761 mmHg 59%
    18:00 +27°C° 0 mm 5 mps 762 mmHg 63%
    19:00 +26°C° 0 mm 5 mps 762 mmHg 66%
    20:00 +25°C° 0.1 mm 5 mps 762 mmHg 68%
    21:00 +25°C° 0.1 mm 5 mps 763 mmHg 70%
    22:00 +25°C° 0.1 mm 5 mps 763 mmHg 71%
    23:00 +25°C° 0.1 mm 5 mps 763 mmHg 73%

    Tomorrow, 23 February, Sunday

    Time Temperature Precipitation Wind Pressure Humidity
    00:00 +23°C° 0.1 mm 5 mps 762 mmHg 75%
    01:00 +23°C° 0.1 mm 5 mps 762 mmHg 76%
    02:00 +23°C° 0.1 mm 4 mps 762 mmHg 77%
    03:00 +23°C° 0.1 mm 4 mps 762 mmHg 77%
    04:00 +23°C° 0.1 mm 4 mps 762 mmHg 77%
    05:00 +23°C° 0.1 mm 4 mps 762 mmHg 77%
    06:00 +23°C° 0.1 mm 4 mps 762 mmHg 77%
    07:00 +23°C° 0.1 mm 4 mps 763 mmHg 76%
    08:00 +26°C° 0.1 mm 4 mps 763 mmHg 71%
    09:00 +27°C° 0.1 mm 4 mps 763 mmHg 67%
    10:00 +28°C° 0.1 mm 5 mps 764 mmHg 62%
    11:00 +28°C° 0.2 mm 5 mps 763 mmHg 61%
    12:00 +29°C° 0.2 mm 4 mps 762 mmHg 60%
    13:00 +29°C° 0.2 mm 4 mps 762 mmHg 59%
    14:00 +28°C° 0.3 mm 4 mps 762 mmHg 62%
    15:00 +28°C° 0.3 mm 4 mps 761 mmHg 66%
    16:00 +27°C° 0.3 mm 4 mps 761 mmHg 69%
    17:00 +26°C° 0.3 mm 4 mps 761 mmHg 73%
    18:00 +26°C° 0.3 mm 4 mps 762 mmHg 77%
    19:00 +25°C° 0.3 mm 3 mps 762 mmHg 80%
    20:00 +25°C° 0.3 mm 3 mps 762 mmHg 81%
    21:00 +24°C° 0.3 mm 3 mps 762 mmHg 83%
    22:00 +24°C° 0.3 mm 3 mps 763 mmHg 84%
    23:00 +24°C° 0.2 mm 3 mps 762 mmHg 84%

    Day after tomorrow, 24 February, Monday

    Time Temperature Precipitation Wind Pressure Humidity
    00:00 +24°C° 0.2 mm 3 mps 761 mmHg 84%
    01:00 +24°C° 0.2 mm 3 mps 761 mmHg 84%
    02:00 +24°C° 0.3 mm 3 mps 761 mmHg 84%
    03:00 +24°C° 0.3 mm 3 mps 761 mmHg 83%
    04:00 +24°C° 0.3 mm 2 mps 761 mmHg 83%
    05:00 +24°C° 0.3 mm 2 mps 761 mmHg 83%
    06:00 +25°C° 0.3 mm 2 mps 761 mmHg 83%
    07:00 +25°C° 0.3 mm 2 mps 762 mmHg 84%
    08:00 +25°C° 0.7 mm 2 mps 762 mmHg 82%
    09:00 +26°C° 0.7 mm 2 mps 762 mmHg 81%
    10:00 +26°C° 0.7 mm 2 mps 762 mmHg 79%
    11:00 +26°C° 1.5 mm 3 mps 762 mmHg 81%
    12:00 +25°C° 1.5 mm 3 mps 761 mmHg 82%
    13:00 +25°C° 1.5 mm 3 mps 761 mmHg 84%
    14:00 +26°C° 0.4 mm 4 mps 760 mmHg 79%
    15:00 +26°C° 0.4 mm 4 mps 760 mmHg 75%
    16:00 +27°C° 0.4 mm 5 mps 760 mmHg 71%
    17:00 +26°C° 0.1 mm 5 mps 760 mmHg 74%
    18:00 +25°C° 0.1 mm 4 mps 760 mmHg 78%
    19:00 +23°C° 0.1 mm 4 mps 761 mmHg 81%
    20:00 +22°C° 0 mm 4 mps 761 mmHg 82%
    21:00 +22°C° 0 mm 4 mps 761 mmHg 83%
    22:00 +22°C° 0 mm 4 mps 761 mmHg 84%
    23:00 +21°C° 0.1 mm 3 mps 761 mmHg 85%

    25 February, Tuesday

    Time Temperature Precipitation Wind Pressure Humidity
    00:00 +21°C° 0.1 mm 3 mps 760 mmHg 85%
    01:00 +21°C° 0.1 mm 3 mps 760 mmHg 86%
    02:00 +21°C° 0.1 mm 3 mps 760 mmHg 86%
    03:00 +21°C° 0.1 mm 3 mps 759 mmHg 86%
    04:00 +21°C° 0.1 mm 2 mps 759 mmHg 87%
    05:00 +22°C° 0 mm 3 mps 760 mmHg 85%
    06:00 +22°C° 0 mm 3 mps 760 mmHg 84%
    07:00 +22°C° 0 mm 3 mps 760 mmHg 82%
    08:00 +25°C° 0 mm 3 mps 760 mmHg 74%
    09:00 +27°C° 0 mm 4 mps 760 mmHg 67%
    10:00 +29°C° 0 mm 4 mps 760 mmHg 59%
    11:00 +30°C° 0 mm 4 mps 759 mmHg 56%
    12:00 +32°C° 0 mm 4 mps 759 mmHg 53%
    13:00 +32°C° 0 mm 4 mps 758 mmHg 50%
    14:00 +32°C° 0 mm 4 mps 758 mmHg 52%
    15:00 +32°C° 0 mm 4 mps 757 mmHg 55%
    16:00 +30°C° 0 mm 4 mps 757 mmHg 58%
    17:00 +29°C° 0 mm 4 mps 757 mmHg 64%
    18:00 +28°C° 0 mm 3 mps 757 mmHg 71%
    19:00 +26°C° 0 mm 3 mps 757 mmHg 77%
    20:00 +26°C° 0 mm 2 mps 758 mmHg 79%
    21:00 +26°C° 0 mm 2 mps 758 mmHg 80%
    22:00 +25°C° 0 mm 2 mps 758 mmHg 81%
    23:00 +25°C° 0.1 mm 2 mps 758 mmHg 83%

    26 February, Wednesday

    Time Temperature Precipitation Wind Pressure Humidity
    00:00 +24°C° 0.1 mm 2 mps 757 mmHg 84%
    01:00 +24°C° 0.1 mm 1 mps 757 mmHg 86%
    02:00 +24°C° 0 mm 2 mps 757 mmHg 86%
    03:00 +23°C° 0 mm 2 mps 756 mmHg 87%
    04:00 +23°C° 0 mm 2 mps 756 mmHg 88%
    05:00 +24°C° 0 mm 2 mps 756 mmHg 86%
    06:00 +24°C° 0 mm 1 mps 756 mmHg 83%
    07:00 +25°C° 0 mm 1 mps 757 mmHg 81%
    08:00 +27°C° 0 mm 1 mps 757 mmHg 71%
    09:00 +30°C° 0 mm 1 mps 756 mmHg 61%
    10:00 +32°C° 0 mm 1 mps 756 mmHg 51%
    11:00 +33°C° 0 mm 1 mps 756 mmHg 48%
    12:00 +34°C° 0 mm 1 mps 755 mmHg 44%
    13:00 +36°C° 0 mm 2 mps 755 mmHg 40%
    14:00 +36°C° 0 mm 2 mps 754 mmHg 43%
    15:00 +35°C° 0 mm 2 mps 754 mmHg 46%
    16:00 +34°C° 0 mm 2 mps 753 mmHg 49%
    17:00 +31°C° 0.1 mm 2 mps 754 mmHg 57%
    18:00 +29°C° 0.1 mm 2 mps 754 mmHg 65%
    19:00 +28°C° 0.1 mm 2 mps 755 mmHg 73%
    20:00 +27°C° 0.6 mm 2 mps 755 mmHg 75%
    21:00 +27°C° 0.6 mm 2 mps 755 mmHg 77%
    22:00 +26°C° 0.6 mm 1 mps 756 mmHg 79%
    23:00 +26°C° 0 mm 1 mps 755 mmHg 80%

    27 February, Thursday

    Time Temperature Precipitation Wind Pressure Humidity
    00:00 +25°C° 0 mm 1 mps 755 mmHg 82%
    01:00 +25°C° 0 mm 1 mps 755 mmHg 83%
    02:00 +25°C° 0 mm 1 mps 755 mmHg 83%
    03:00 +25°C° 0 mm 1 mps 755 mmHg 84%
    04:00 +24°C° 0 mm 1 mps 755 mmHg 85%
    05:00 +25°C° 0 mm 1 mps 755 mmHg 84%
    06:00 +25°C° 0 mm 1 mps 756 mmHg 82%
    07:00 +25°C° 0 mm 2 mps 756 mmHg 81%
    08:00 +27°C° 0.2 mm 2 mps 757 mmHg 74%
    09:00 +29°C° 0.2 mm 3 mps 757 mmHg 67%
    10:00 +32°C° 0.2 mm 4 mps 757 mmHg 59%
    11:00 +32°C° 1.1 mm 4 mps 757 mmHg 60%
    12:00 +32°C° 1.1 mm 4 mps 756 mmHg 60%
    13:00 +32°C° 1.1 mm 5 mps 756 mmHg 60%
    14:00 +32°C° 1 mm 5 mps 756 mmHg 62%
    15:00 +30°C° 1 mm 5 mps 756 mmHg 64%
    16:00 +30°C° 1 mm 5 mps 755 mmHg 66%
    17:00 +28°C° 0.6 mm 4 mps 756 mmHg 70%
    18:00 +27°C° 0.6 mm 4 mps 756 mmHg 74%
    19:00 +26°C° 0.6 mm 4 mps 757 mmHg 78%
    20:00 +26°C° 0.5 mm 3 mps 757 mmHg 79%
    21:00 +25°C° 0.5 mm 3 mps 758 mmHg 80%
    22:00 +25°C° 0.5 mm 3 mps 758 mmHg 82%
    23:00 +24°C° 0 mm 3 mps 758 mmHg 83%
    Show more